Date String (YYYY-MM-DD hh:mm:ss) UTC,Instrument flags,absolute air pressure of the measurement (hPa),sample flow rate (lpm),inlet stack bypass flow (lpm),air temperature of the measurement (°C),ambient temperature measured by the external sensor (°C),aerosol sample conditioner tube jacket temperature (°C),OPC LED temperature (°C),internal box temperature (°C),relative humidity of the measurement (%),span deviation,mass concentration of particles derived from Lorenz-Mie calculation of OPC scattering (μg/m³),mass concentration of particles derived from Lorenz-Mie calculation of OPC scattering (μg/m³),mass concentration of particles derived from Lorenz-Mie calculation of OPC scattering (μg/m³)
DateTimeUTC,F1_M11,P_M11,Q1_M11,Q2_M11,T1_M11,T2_M11,T3_M11,T4_M11,T5_M11,U1_M11,ZSPAN_M11,X2_M11,X0_M11,X1_M11
2023-10-08 21:00:00,SystemResetWarning,0831.5,5.00,000.00,028.2,026.8,000.0,036.6,030.0,12.1,0000.0,0001.78,0006.28,0001.46
2023-10-08 21:01:00,SystemResetWarning,0831.5,5.00,000.00,028.3,027.0,000.0,036.6,030.1,12.3,0000.0,0001.78,0006.23,0001.47
2023-10-08 21:02:00,SystemResetWarning,0831.4,5.00,000.00,028.3,027.2,000.0,036.7,030.2,12.3,0000.0,0001.82,0006.93,0001.47
2023-10-08 21:03:00,SystemResetWarning,0831.5,5.00,000.00,028.4,027.4,000.0,036.7,030.2,12.2,0000.0,0001.84,0008.35,0001.49
2023-10-08 21:04:00,SystemResetWarning,0831.4,4.99,000.00,028.4,027.1,000.0,036.7,030.3,12.2,0000.0,0001.87,0008.53,0001.51
2023-10-08 21:05:00,SystemResetWarning,0831.4,5.00,000.00,028.4,025.4,000.0,036.7,030.0,12.3,0000.0,0001.89,0008.41,0001.52
2023-10-08 21:06:00,SystemResetWarning,0831.4,5.00,000.00,028.3,024.3,000.0,036.6,029.8,12.5,0000.0,0001.92,0008.92,0001.53
2023-10-08 21:07:00,SystemResetWarning,0831.4,5.01,000.00,028.2,024.4,000.0,036.6,029.7,12.2,0000.0,0001.93,0008.67,0001.53
2023-10-08 21:08:00,SystemResetWarning,0831.3,5.01,000.00,028.1,024.8,000.0,036.5,029.6,12.1,0000.0,0001.95,0008.22,0001.53
2023-10-08 21:09:00,SystemResetWarning,0831.4,5.00,000.00,028.1,025.2,000.0,036.6,029.6,12.1,0000.0,0001.99,0008.76,0001.54
2023-10-08 21:10:00,SystemResetWarning,0831.3,5.00,000.00,028.1,025.6,000.0,036.6,029.7,12.2,0000.0,0002.02,0009.06,0001.55
2023-10-08 21:11:00,SystemResetWarning,0831.4,5.01,000.00,028.1,026.0,000.0,036.6,029.8,12.3,0000.0,0002.05,0009.07,0001.55
2023-10-08 21:12:00,SystemResetWarning,0831.4,5.00,000.00,028.2,026.4,000.0,036.6,029.9,12.1,0000.0,0002.07,0009.16,0001.55
2023-10-08 21:13:00,SystemResetWarning,0831.3,5.00,000.00,028.2,026.6,000.0,036.6,030.0,12.1,0000.0,0002.06,0008.90,0001.55
2023-10-08 21:14:00,SystemResetWarning,0831.3,5.00,000.00,028.2,026.9,000.0,036.6,030.0,12.2,0000.0,0002.04,0007.70,0001.54
2023-10-08 21:15:00,SystemResetWarning,0831.3,5.00,000.00,028.3,027.1,000.0,036.7,030.1,12.2,0000.0,0002.03,0007.23,0001.53
2023-10-08 21:16:00,SystemResetWarning,0831.3,4.99,000.00,028.3,027.3,000.0,036.7,030.2,12.0,0000.0,0002.03,0006.93,0001.52
2023-10-08 21:17:00,SystemResetWarning,0831.3,4.99,000.00,028.4,027.3,000.0,036.7,030.2,12.2,0000.0,0001.97,0005.18,0001.52
2023-10-08 21:18:00,SystemResetWarning,0831.3,4.99,000.00,028.4,026.0,000.0,036.7,030.2,12.2,0000.0,0001.97,0006.15,0001.52
2023-10-08 21:19:00,SystemResetWarning,0831.3,5.00,000.00,028.3,024.4,000.0,036.6,029.9,12.1,0000.0,0001.99,0007.44,0001.54
2023-10-08 21:20:00,SystemResetWarning,0831.3,5.01,000.00,028.2,024.3,000.0,036.5,029.8,12.1,0000.0,0002.01,0006.84,0001.54
2023-10-08 21:21:00,SystemResetWarning,0831.3,5.01,000.00,028.1,024.6,000.0,036.5,029.6,12.2,0000.0,0002.02,0006.24,0001.55
2023-10-08 21:22:00,SystemResetWarning,0831.3,4.99,000.00,028.1,025.0,000.0,036.6,029.6,12.2,0000.0,0001.99,0006.21,0001.53
2023-10-08 21:23:00,SystemResetWarning,0831.3,5.00,000.00,028.1,025.4,000.0,036.6,029.7,12.4,0000.0,0002.02,0006.33,0001.54
2023-10-08 21:24:00,SystemResetWarning,0831.3,5.00,000.00,028.1,025.9,000.0,036.6,029.8,12.4,0000.0,0002.04,0007.29,0001.55
2023-10-08 21:25:00,SystemResetWarning,0831.3,4.99,000.00,028.1,026.2,000.0,036.6,029.9,12.6,0000.0,0002.06,0008.14,0001.55
2023-10-08 21:26:00,SystemResetWarning,0831.3,5.00,000.00,028.2,026.5,000.0,036.6,029.9,12.3,0000.0,0002.11,0008.55,0001.57
2023-10-08 21:27:00,SystemResetWarning,0831.3,5.00,000.00,028.2,026.8,000.0,036.6,030.0,12.4,0000.0,0002.13,0008.91,0001.57
2023-10-08 21:28:00,SystemResetWarning,0831.3,5.01,000.00,028.3,027.0,000.0,036.7,030.1,12.3,0000.0,0002.17,0009.22,0001.56
2023-10-08 21:29:00,SystemResetWarning,0831.3,5.01,000.00,028.3,027.2,000.0,036.7,030.2,12.1,0000.0,0002.18,0009.08,0001.56
2023-10-08 21:30:00,SystemResetWarning,0831.3,4.99,000.00,028.4,027.4,000.0,036.7,030.2,11.9,0000.0,0002.18,0008.06,0001.56
2023-10-08 21:31:00,SystemResetWarning,0831.3,4.99,000.00,028.4,026.6,000.0,036.7,030.2,12.0,0000.0,0002.16,0007.93,0001.56
2023-10-08 21:32:00,SystemResetWarning,0831.3,5.00,000.00,028.4,024.7,000.0,036.6,030.0,11.9,0000.0,0002.15,0007.89,0001.57
2023-10-08 21:33:00,SystemResetWarning,0831.3,5.01,000.00,028.3,024.2,000.0,036.6,029.8,12.0,0000.0,0002.18,0008.03,0001.58
2023-10-08 21:34:00,SystemResetWarning,0831.2,5.01,000.00,028.2,024.4,000.0,036.5,029.7,12.3,0000.0,0002.17,0008.00,0001.60
2023-10-08 21:35:00,SystemResetWarning,0831.3,4.99,000.00,028.1,024.8,000.0,036.6,029.6,12.2,0000.0,0002.14,0008.33,0001.61
2023-10-08 21:36:00,SystemResetWarning,0831.3,5.01,000.00,028.1,025.3,000.0,036.6,029.7,12.1,0000.0,0002.13,0008.60,0001.61
2023-10-08 21:37:00,SystemResetWarning,0831.3,4.99,000.00,028.1,025.7,000.0,036.6,029.8,12.1,0000.0,0002.17,0008.78,0001.61
2023-10-08 21:38:00,SystemResetWarning,0831.3,4.99,000.00,028.1,026.1,000.0,036.6,029.8,12.1,0000.0,0002.20,0008.59,0001.61
2023-10-08 21:39:00,SystemResetWarning,0831.2,5.00,000.00,028.2,026.4,000.0,036.6,029.9,12.1,0000.0,0002.24,0008.87,0001.62
2023-10-08 21:40:00,SystemResetWarning,0831.2,4.99,000.00,028.2,026.7,000.0,036.6,030.0,12.1,0000.0,0002.24,0008.51,0001.64
2023-10-08 21:41:00,SystemResetWarning,0831.3,5.01,000.00,028.3,026.9,000.0,036.6,030.1,12.2,0000.0,0002.27,0008.51,0001.65
2023-10-08 21:42:00,SystemResetWarning,0831.3,5.01,000.00,028.3,027.2,000.0,036.7,030.1,12.1,0000.0,0002.32,0008.84,0001.65
2023-10-08 21:43:00,SystemResetWarning,0831.3,5.01,000.00,028.4,027.3,000.0,036.7,030.2,11.9,0000.0,0002.31,0009.16,0001.65
2023-10-08 21:44:00,SystemResetWarning,0831.3,4.98,000.00,028.4,027.1,000.0,036.7,030.2,11.9,0000.0,0002.36,0009.80,0001.66
2023-10-08 21:45:00,SystemResetWarning,0831.2,5.00,000.00,028.4,025.3,000.0,036.7,030.1,12.0,0000.0,0002.37,0009.72,0001.65
2023-10-08 21:46:00,SystemResetWarning,0831.2,5.00,000.00,028.3,024.2,000.0,036.6,029.9,11.9,0000.0,0002.40,0009.68,0001.65
2023-10-08 21:47:00,SystemResetWarning,0831.2,5.01,000.00,028.2,024.4,000.0,036.5,029.8,11.9,0000.0,0002.44,0008.90,0001.66
2023-10-08 21:48:00,SystemResetWarning,0831.2,5.00,000.00,028.1,024.7,000.0,036.5,029.6,12.0,0000.0,0002.41,0008.81,0001.67
2023-10-08 21:49:00,SystemResetWarning,0831.2,5.00,000.00,028.1,025.1,000.0,036.6,029.6,12.1,0000.0,0002.36,0008.35,0001.68
2023-10-08 21:50:00,SystemResetWarning,0831.2,5.00,000.00,028.1,025.6,000.0,036.6,029.7,11.9,0000.0,0002.34,0007.96,0001.68
2023-10-08 21:51:00,SystemResetWarning,0831.2,5.00,000.00,028.1,026.0,000.0,036.6,029.8,12.0,0000.0,0002.37,0008.39,0001.68
2023-10-08 21:52:00,SystemResetWarning,0831.2,5.00,000.00,028.2,026.3,000.0,036.6,029.9,12.0,0000.0,0002.35,0008.61,0001.68
2023-10-08 21:53:00,SystemResetWarning,0831.2,4.99,000.00,028.2,026.6,000.0,036.6,030.0,12.0,0000.0,0002.33,0008.33,0001.70
2023-10-08 21:54:00,SystemResetWarning,0831.2,5.01,000.00,028.2,026.9,000.0,036.6,030.1,12.2,0000.0,0002.32,0007.96,0001.69
2023-10-08 21:55:00,SystemResetWarning,0831.2,5.00,000.00,028.3,027.1,000.0,036.7,030.1,12.3,0000.0,0002.27,0007.28,0001.68
2023-10-08 21:56:00,SystemResetWarning,0831.2,4.99,000.00,028.4,027.3,000.0,036.7,030.2,11.9,0000.0,0002.28,0007.41,0001.69
2023-10-08 21:57:00,SystemResetWarning,0831.2,5.00,000.00,028.4,027.4,000.0,036.7,030.2,11.8,0000.0,0002.29,0007.41,0001.70
2023-10-08 21:58:00,SystemResetWarning,0831.1,4.98,000.00,028.4,026.0,000.0,036.7,030.2,11.8,0000.0,0002.29,0006.90,0001.71
2023-10-08 21:59:00,SystemResetWarning,0831.1,5.00,000.00,028.3,024.5,000.0,036.6,029.9,12.0,0000.0,0002.27,0006.93,0001.72
